{"data":{"norad_id":62182,"epoch":"2026-09-21T18:55:45.614496Z","epoch_age_seconds":66247,"freshness":"FRESH","line1":"1 62182U 24225V   26264.78872239  .00001858  00000+0  16343-3 0  9991","line2":"2 62182  70.0019  29.8272 0002687 271.2532  88.8319 14.98336520 99256","mean_motion":14.9833652,"eccentricity":0.0002687,"inclination_deg":70.0019,"raan_deg":29.8272,"arg_perigee_deg":271.2532,"mean_anomaly_deg":88.8319,"bstar":0.00016343,"rev_number":9925,"period_min":96.106580916816,"perigee_km":570.16821704323,"apogee_km":573.9032398675,"semimajor_km":6950.1727284554,"source":"CELESTRAK","updated_at":"2026-09-22T09:00:49.538093Z"}}